Location: Newark
(43.5831°N, 21.3381°E)
Time: 00:23:44
(UTC+00:00)

Envisat - Pass Details

Date: 12 December 2019
Orbit: 764 x 766 km, 98.1° (Epoch: 21 January)

Event Time Altitude Azimuth Distance (km) Brightness Sun altitude
Rises 18:01:47 0° 218° (SW) 3,222 6.7 -32.3°
Reaches altitude 10° 18:05:35 10° 248° (WSW) 2,302 6.2 -33.0°
Maximum altitude 18:07:39 12° 272° (W) 2,142 6.1 -33.4°
Drops below altitude 10° 18:09:44 10° 296° (WNW) 2,309 6.1 -33.8°
Sets 18:13:35 0° 326° (NW) 3,242 6.6 -34.5°
